User: anonymous   Login
Location: Unspecified
(0.0000°N, 0.0000°E)
Time: 03:09:54
(UTC+00:00)
Language:

RS-15 - Orbit

View from above orbital plane
View from above orbital plane
View from above satellite
View from above satellite

Ground track
Ground track

The orbit data is extracted from the following two-line orbital elements,

1 23439U 94085A   19016.89219454 -.00000050  00000-0 -22188-3 0  9997
2 23439  64.8184   3.2244 0149744 142.5781 269.0812 11.27567584990828
Epoch (UTC): 16 January 2019 21:24:45
Eccentricity: 0.0149744
inclination: 64.8184°
perigee height: 1896 km
apogee height: 2148 km
right ascension of ascending node: 3.2244°
argument of perigee: 142.5781°
revolutions per day: 11.27567584
mean anomaly at epoch: 269.0812°
orbit number at epoch: 99082

The dashed part of the orbit path shows where the satellite is in the earth's shadow,  

DLR